Location: Desert Center
(33.7130°N, 115.4010°W)
Time: 05:16:14
(UTC-07:00)

Daily predictions for brighter satellites

Satellite Brightness Start Highest point End
(mag) Time Altitude Azimuth Time Altitude Azimuth Time Altitude Azimuth
Lacrosse 4 Rocket 3.6 00:20:01 10° N 00:22:17 25° NNE 00:22:17 25° NNE
Cosmos 2074 Rocket 4.2 00:25:55 69° N 00:25:55 69° N 00:31:22 10° N
ATLAS 3B R/B 2.8 00:28:57 10° NNW 00:35:37 66° NE 00:35:37 66° NE
Cosmos 2227 Rocket 4.1 00:36:30 19° WNW 00:37:41 20° WNW 00:41:51 10° N
Cosmos 2333 Rocket 3.9 00:40:16 10° NW 00:43:12 23° WNW 00:43:12 23° WNW
Cosmos 2263 Rocket 4.3 00:50:00 16° ENE 00:50:00 16° ENE 00:51:58 10° ENE
Cosmos 2154 Rocket 4.3 00:50:21 60° NE 00:50:21 60° NE 00:55:43 10° NNE
SL-16 R/B 3.1 00:47:29 10° NNW 00:51:21 44° NW 00:51:21 44° NW
Cosmos 2297 Rocket 4.3 01:04:32 17° WNW 01:05:36 17° WNW 01:09:17 10° NNW
COSMOS 2455 3.7 01:00:36 10° NNW 01:04:42 43° NW 01:04:42 43° NW
FALCON 9 R/B 4.2 01:07:36 10° WNW 01:12:16 25° W 01:12:16 25° W
Cosmos 2341 Rocket 4.1 01:17:18 73° N 01:17:18 73° N 01:23:02 10° N
CZ-2C R/B 3.7 01:17:39 62° NNE 01:17:39 62° NNE 01:22:29 10° N
CZ-2C R/B 3.6 01:20:06 10° N 01:23:52 39° NW 01:23:52 39° NW
Cosmos 1603 4.2 01:20:46 10° NNW 01:25:14 56° N 01:25:14 56° N
NOSS 3-4 (A) 4.0 01:28:23 51° E 01:28:23 51° E 01:33:47 10° NE
NOSS 3-4 (C) 4.0 01:28:29 51° E 01:28:29 51° E 01:33:52 10° NE
SL-8 Rocket 4.0 01:44:36 80° NNE 01:44:36 80° NNE 01:50:35 10° N
Cosmos 2218 Rocket 4.0 01:46:31 72° ENE 01:46:31 72° ENE 01:52:33 10° N
Okean 2 Rocket 4.4 02:04:18 37° NNW 02:04:18 37° NNW 02:07:09 10° N
Cosmos 2366 rocket 3.8 02:05:37 87° N 02:05:37 87° N 02:11:42 10° N
NPP 4.1 02:02:25 10° NNE 02:07:24 53° E 02:07:24 53° E
ERS-2 4.3 02:09:42 10° NNE 02:11:34 25° NE 02:11:34 25° NE
ADEOS 4.5 02:15:54 10° NNE 02:20:46 38° E 02:21:03 38° ESE
Meteor 2-19 Rocket 4.3 02:20:49 74° SE 02:21:18 79° E 02:27:28 10° N
CZ-4C R/B 2.9 02:14:19 10° NNW 02:21:39 80° ENE 02:25:38 33° SE
USA 238 DEB 4.2 02:19:32 10° NW 02:25:02 43° W 02:25:02 43° W
USA 238 4.2 02:19:38 10° NW 02:25:11 43° W 02:25:11 43° W
Meteor 1-14 Rocket 4.2 02:29:26 73° W 02:29:35 74° W 02:35:32 10° N
Cosmos 1727 Rocket 3.8 02:23:28 10° N 02:29:43 83° W 02:30:12 76° SSW
Cosmos 1844 Rocket 4.0 02:29:44 27° ESE 02:30:48 29° ESE 02:35:34 10° NE
Cosmos 2263 Rocket 2.6 02:31:41 51° WNW 02:31:44 51° WNW 02:37:17 10° N
ARIANE 5 R/B 3.9 02:28:39 10° NE 02:32:53 27° E 02:33:52 26° ESE
CZ-2D R/B 4.0 02:30:49 10° NE 02:34:59 22° E 02:37:09 18° SE
Iridium 4 Rocket 3.4 02:31:11 10° N 02:35:19 71° NNW 02:35:19 71° NNW
Meteor 2-8 Rocket 4.2 02:32:16 10° N 02:38:21 81° W 02:39:00 71° SSW
CBERS-1 3.9 02:35:11 10° NNE 02:40:21 88° W 02:40:23 88° WSW
USA 234 3.1 02:38:24 24° SE 02:42:41 83° SW 02:49:15 10° NW
Cosmos 1300 Rocket 4.0 02:44:43 54° E 02:44:43 54° E 02:48:46 10° NNE
Cosmos 2278 Rocket 4.3 02:42:23 13° SE 02:44:55 17° E 02:48:29 10° ENE
Cosmos 1536 Rocket 3.8 02:49:59 10° N 02:53:39 59° NW 02:53:39 59° NW
IRS-1C 4.0 02:50:41 10° N 02:56:01 78° WNW 02:56:39 68° SW
NOSS 3-2 (C) 3.9 02:52:35 10° NNW 03:00:17 82° WSW 03:08:25 10° SSE
Cosmos 1190 Rocket 4.1 02:57:23 10° NNW 03:02:37 71° ENE 03:04:43 36° SSE
Gbstr 26 Del rocket 3.5 03:03:17 44° ESE 03:03:17 44° ESE 03:06:22 10° ENE
Cosmos 1934 Rocket 4.3 03:00:42 35° SSE 03:03:22 63° E 03:09:29 10° NNE
Cosmos 1943 4.2 02:58:36 10° NW 03:02:25 30° WNW 03:02:25 30° WNW
Meteor 1-18 Rocket 4.1 02:58:14 10° NNW 03:03:52 76° W 03:05:06 55° SSW
SL-16 R/B 3.5 02:58:23 10° SE 03:04:18 46° ENE 03:10:13 10° N
Cosmos 2056 Rocket 4.0 03:04:13 44° W 03:04:40 45° WNW 03:09:44 10° N
Okean 1-7 Rocket 4.1 03:03:15 10° N 03:07:46 59° E 03:09:10 40° SE
Spot 4 Rocket 3.9 03:06:26 10° N 03:11:36 77° WNW 03:12:36 57° SW
OAO 2 Rocket 3.2 03:13:05 60° WSW 03:13:45 68° SSW 03:18:48 10° ESE
SL-08 R/B 3.9 03:14:46 42° W 03:14:46 42° W 03:19:09 10° NNW
Cosmos 1000 Rocket 4.3 03:11:14 10° N 03:17:23 79° W 03:20:01 37° S
Okean 1 Rocket 3.0 03:19:31 61° WSW 03:19:46 62° W 03:24:10 10° N
Okean O Rocket 3.7 03:17:21 10° NE 03:20:38 21° E 03:23:39 11° SE
SL-27 R/B 3.2 03:17:43 10° N 03:21:19 54° ENE 03:22:23 38° SE
Cosmos 407 Rocket 3.4 03:16:09 10° NNW 03:21:19 85° ENE 03:24:15 27° SSE
EO 1 Del DPAF 4.1 03:19:35 27° SE 03:21:21 48° ENE 03:25:07 10° N
Meteor 1-11 Rocket 3.9 03:22:23 33° S 03:25:11 77° E 03:31:10 10° NNE
Cosmos 676 Rocket 4.2 03:20:27 10° N 03:25:37 67° ENE 03:30:20 12° SSE
NOSS 3-2 (A) 4.2 03:18:25 10° NW 03:25:42 47° WSW 03:29:51 27° S
NOSS 2-2 (D) 3.9 03:26:42 44° SSE 03:27:34 53° ESE 03:31:53 10° NE
RESURS DK-1 4.3 03:27:31 17° WNW 03:27:43 17° WNW 03:30:29 10° NNW
Okean 1 3.4 03:24:43 10° NNW 03:28:34 56° W 03:28:34 56° W
Resurs 1-4 Rocket 2.1 03:24:33 10° NNE 03:29:53 78° ESE 03:32:19 33° S
GP-B 3.8 03:25:59 10° NNW 03:30:05 37° W 03:30:12 37° W
Tiangong 1 3.0 03:29:02 12° NW 03:31:26 29° NNE 03:34:11 10° E
Cosmos 1605 Rocket 4.1 03:27:55 26° S 03:31:33 75° E 03:37:46 10° N
Cosmos 1400 Rocket 4.1 03:29:57 22° SE 03:31:48 35° E 03:35:21 10° NNE
IRS-1D 3.4 03:27:46 10° N 03:32:52 78° WNW 03:34:39 41° SSW
Cosmos 1821 Rocket 4.1 03:30:29 36° SW 03:33:00 60° W 03:39:20 10° N
Cosmos 1867 3.8 03:30:34 10° NW 03:35:44 45° WSW 03:36:59 38° SSW
Meteor 1-13 Rocket 4.2 03:30:29 10° N 03:36:11 88° E 03:40:33 18° S
UNK 3.8 03:33:10 21° SSE 03:36:12 75° ENE 03:40:49 10° N
Cosmos 1633 3.1 03:35:52 37° SSE 03:36:59 54° E 03:40:31 10° NNE
TIMED 4.4 03:36:27 50° SW 03:37:29 71° WNW 03:41:51 10° NNE
Cosmos 1812 3.7 03:34:29 10° NNW 03:37:32 33° WNW 03:37:32 33° WNW
Cosmos 2123 Rocket 4.1 03:32:20 10° N 03:38:42 83° E 03:44:25 13° S
Hubble Space Telescope 2.1 03:42:06 24° SSE 03:42:06 24° SSE 03:44:27 10° SE
NOSS 2-2 (C) 3.4 03:40:49 45° SSW 03:42:01 81° ESE 03:46:29 10° NNE
Delta 2 Rocket 4.3 03:40:14 32° SW 03:42:22 42° S 03:48:03 10° ESE
Cosmos 1455 Rocket 4.1 03:44:23 14° SSE 03:47:51 44° E 03:52:05 10° NNE
CZ-2D R/B 3.8 03:44:25 10° NNE 03:48:21 59° E 03:50:36 24° S
Cosmos 1356 3.6 03:53:08 31° S 03:54:42 71° E 03:58:14 10° NNE
Cosmos 1315 Rocket 4.0 03:51:29 13° SSE 03:54:51 40° E 03:58:41 10° NNE
Meteor 2-15 Rocket 4.4 03:48:48 10° N 03:54:59 88° E 04:01:08 10° S
Cosmos 1954 Rocket 3.9 03:49:49 10° NNW 03:55:00 83° WSW 04:00:10 10° SSE
Yuri Rocket 3.7 03:53:59 31° SW 03:55:51 43° S 04:00:05 10° ESE
USA 129 3.6 03:56:34 22° ESE 03:57:22 31° ENE 03:59:19 10° N
Cosmos 1461 3.4 03:55:00 26° SSW 03:57:34 68° ESE 04:02:13 10° NE
USA 161 4.1 03:59:18 11° NW 03:59:18 11° NW 03:59:28 10° NW
SME Rocket 2.7 03:58:56 19° S 04:01:37 67° WSW 04:05:23 10° NNW
OTV 4 0.7 04:00:12 21° WNW 04:01:59 64° NNE 04:04:54 10° E
Meteor 1-23 Rocket 4.4 03:57:04 10° N 04:02:48 74° E 04:08:24 10° SSE
Cosmos 1025 Rocket 2.9 03:59:38 10° NNW 04:03:55 67° W 04:06:58 18° S
COSMOS 2487 3.5 04:01:01 10° N 04:04:32 48° ENE 04:08:01 10° SSE
NOSS 2-2 (E) 4.1 04:06:41 26° WSW 04:08:40 46° NW 04:13:10 10° NNE
CZ-4C R/B 4.1 04:04:48 10° WNW 04:09:41 19° WSW 04:10:39 18° WSW
ARIANE 5 R/B 3.6 04:07:44 10° NNW 04:11:53 27° WNW 04:14:13 19° WSW
Thor Agena Rocket 4.5 04:06:58 10° SSE 04:12:00 51° ENE 04:16:59 10° N
MTI 4.0 04:10:42 25° SSW 04:12:19 51° W 04:15:33 10° NNW
Cosmos 1844 4.2 04:09:29 22° SW 04:12:49 46° WNW 04:18:20 10° N
Cosmos 1544 Rocket 3.6 04:10:09 22° SSW 04:12:56 61° W 04:17:20 10° N
Cosmos 1844 Rocket 3.7 04:11:25 20° WSW 04:14:31 32° WNW 04:19:35 10° N
CZ-2D R/B 2.8 04:10:06 10° N 04:15:06 39° WNW 04:18:29 19° SW
COSMOS 2406 3.9 04:14:31 10° NW 04:19:34 32° WSW 04:24:18 11° SSW
Cosmos 1536 3.9 04:18:54 21° WSW 04:20:39 30° W 04:24:15 10° NNW
Cosmos 614 Rocket 4.2 04:17:46 10° NNW 04:22:56 71° ENE 04:28:01 10° SSE
CZ-4B DEB 4.4 04:17:32 10° NNE 04:23:07 77° ESE 04:28:40 10° S
Cosmos 2297 4.0 04:18:21 11° S 04:23:48 69° ESE 04:29:27 10° NNE
UNK 4.3 04:17:26 14° WSW 04:24:01 40° NW 04:27:02 10° NNE
Cosmos 2100 Rocket 4.1 04:18:00 10° S 04:24:12 85° E 04:30:30 10° N
USA 234 4.5 04:25:35 16° SW 04:26:09 16° WSW 04:29:58 10° W
Meteor 1-5 Rocket 4.3 04:21:19 10° SSW 04:27:12 75° W 04:33:03 10° N
Cosmos 2278 Rocket 2.5 04:24:15 17° SW 04:28:29 52° WNW 04:34:01 10° N
Cosmos 1459 Rocket 4.1 04:23:42 10° S 04:30:05 89° E 04:36:27 10° N
Skynet4D Del rocket 4.1 04:26:56 16° WSW 04:30:50 42° S 04:36:19 10° ESE
CZ-2C R/B 3.8 04:30:43 10° S 04:35:22 63° W 04:40:06 10° NNW
Cosmos 1892 Rocket 4.0 04:33:42 10° NNW 04:37:45 39° W 04:41:47 10° SSW
Timation 2 Rocket 4.3 04:32:05 10° NNW 04:38:12 69° ENE 04:44:08 10° SSE
UNKNOWN OBJECT B 4.4 04:35:43 10° NNW 04:38:49 21° WNW 04:41:22 13° WSW
Okean-O 3.3 04:35:57 10° NNE 04:40:20 57° E 04:44:40 10° S
Cosmos 2061 Rocket 4.0 04:36:08 10° SSW 04:42:23 74° W 04:48:46 10° N
Cosmos 1331 Rocket 4.2 04:38:59 10° S 04:44:13 78° ESE 04:49:27 10° NNE
Meteor 2-4 Rocket 4.1 04:41:07 10° NNW 04:46:06 39° W 04:51:01 10° SSW
CZ-4B R/B 3.5 04:40:36 10° N 04:46:10 58° WNW 04:51:41 10° SSW
SL-16 R/B 3.6 04:43:14 10° SW 04:48:03 23° W 04:52:53 10° NW
ATLAS 5 CENTAUR R/B 3.2 04:42:08 10° NNW 04:48:08 57° ENE 04:54:28 10° SE
Cosmos 2082 Rocket 3.5 04:45:31 10° N 04:51:01 47° ENE 04:56:28 10° SE
CENTAUR R/B 3.3 04:48:38 10° NW 04:56:23 54° WSW 05:04:23 10° S
Okean O Rocket 2.8 04:53:18 10° NNW 04:56:57 27° WNW 05:00:34 10° SW
OAO 2 Rocket 4.5 04:54:08 10° W 04:58:07 23° SSW 05:02:01 10° SSE
Cosmos 1850 Rocket 4.4 04:53:37 10° NNW 04:58:30 41° WSW 05:03:24 10° S
Cosmos 1741 Rocket 4.4 04:53:34 10° NNW 04:58:31 42° WSW 05:03:25 10° S
NOSS 5 (C) 4.3 04:55:12 10° SW 04:58:43 70° WNW 05:01:50 10° NNE
Cosmos 1140 Rocket 4.3 04:54:32 10° NW 04:58:54 29° W 05:03:16 10° SSW
CZ-3 Stage 3 4.2 04:26:02 11° WSW 05:00:26 60° S 05:06:29 10° E
USA 215 4.4 04:55:40 10° ENE 05:01:38 37° SE 05:07:34 10° SSW
BREEZE-M DEB (TANK) 4.0 04:54:14 10° SW 05:02:30 49° SE 05:05:26 10° ENE
Cosmos 1500 3.5 04:58:55 10° S 05:02:45 74° E 05:06:39 10° N
APEX 2.8 05:01:00 10° SW 05:03:38 49° WNW 05:06:36 10° NNE
Cosmos 1515 4.4 05:00:00 10° N 05:03:46 59° E 05:07:31 10° SSE
